SKYNET 4F               
1 26695U 01005B   19264.70952922 -.00000251  00000-0  00000+0 0  9990
2 26695   9.7340  31.2587 0003058 154.2022  36.3285  1.00270268 68200
ARIANE 44L R/B          
1 26696U 01005C   19265.27669562  .00000649  00000-0  44281-3 0  9992
2 26696   6.8700 182.4519 7033896 320.4737   5.3253  2.57660218164493